TAM3881 SBRP-SBGR

Flight info

Callsign TAM3881
Flight time 0h 37m
Altitude 29000
Route OPRUT DCT VUNOX
Aircraft A320/M-SDE3FGHIRWY/LB1

Departure

Time 2026-04-23 18:58
Airport Leite Lopes Airport (SBRP)

Arrival

Time 2026-04-23 19:35
Airport São Paulo/Guarulhos–Governor André Franco Montoro International Airport (SBGR)
Time Latitude Longitude Altitude Speed Heading
2026-04-23 18:24 -21.13887 -47.77598 1825 ft 0 kts 254°
2026-04-23 18:51 -21.13886 -47.77595 1824 ft 2 kts 254°
2026-04-23 18:51 -21.13883 -47.77582 1825 ft 0 kts 254°
2026-04-23 18:51 -21.13879 -47.77570 1825 ft 2 kts 231°
2026-04-23 18:51 -21.13867 -47.77560 1825 ft 2 kts 203°
2026-04-23 18:52 -21.13852 -47.77557 1824 ft 2 kts 174°
2026-04-23 18:52 -21.13845 -47.77558 1824 ft 1 kts 158°
2026-04-23 18:52 -21.13841 -47.77560 1824 ft 0 kts 163°
2026-04-23 18:54 -21.13844 -47.77559 1824 ft 1 kts 163°
2026-04-23 18:54 -21.13861 -47.77553 1824 ft 3 kts 156°
2026-04-23 18:54 -21.13872 -47.77526 1825 ft 5 kts 82°
2026-04-23 18:55 -21.13861 -47.77486 1825 ft 6 kts 72°
2026-04-23 18:55 -21.13860 -47.77439 1825 ft 6 kts 133°
2026-04-23 18:55 -21.13909 -47.77421 1825 ft 7 kts 165°
2026-04-23 18:55 -21.13971 -47.77402 1826 ft 10 kts 163°
2026-04-23 18:56 -21.14024 -47.77386 1826 ft 12 kts 163°
2026-04-23 18:56 -21.14136 -47.77351 1827 ft 12 kts 163°
2026-04-23 18:56 -21.14222 -47.77323 1828 ft 13 kts 164°
2026-04-23 18:56 -21.14286 -47.77261 1828 ft 13 kts 108°
2026-04-23 18:57 -21.14306 -47.77167 1829 ft 12 kts 98°
2026-04-23 18:57 -21.14243 -47.77142 1828 ft 14 kts 343°
2026-04-23 18:57 -21.13934 -47.77242 1826 ft 83 kts 343°
2026-04-23 18:57 -21.13151 -47.77492 1820 ft 148 kts 344°
2026-04-23 18:58 -21.12098 -47.77832 2250 ft 159 kts 344°
2026-04-23 18:58 -21.11040 -47.78177 2674 ft 162 kts 345°
2026-04-23 18:58 -21.09911 -47.78542 2908 ft 176 kts 344°
2026-04-23 18:58 -21.08683 -47.78940 3182 ft 191 kts 345°
2026-04-23 18:59 -21.07354 -47.79371 3466 ft 207 kts 345°
2026-04-23 18:59 -21.05895 -47.79843 3692 ft 228 kts 344°
2026-04-23 18:59 -21.04344 -47.80185 4217 ft 233 kts
2026-04-23 18:59 -21.02866 -47.79575 4852 ft 232 kts 43°
2026-04-23 19:00 -21.01996 -47.78153 5545 ft 233 kts 73°
2026-04-23 19:00 -21.01883 -47.76437 6228 ft 237 kts 101°
2026-04-23 19:00 -21.02582 -47.74856 6925 ft 241 kts 131°
2026-04-23 19:00 -21.03945 -47.73819 7666 ft 245 kts 152°
2026-04-23 19:01 -21.05484 -47.73035 8439 ft 247 kts 153°
2026-04-23 19:01 -21.07042 -47.72258 9234 ft 249 kts 153°
2026-04-23 19:01 -21.08615 -47.71479 10024 ft 251 kts 153°
2026-04-23 19:01 -21.10218 -47.70689 10665 ft 259 kts 153°
2026-04-23 19:02 -21.11328 -47.70141 10949 ft 271 kts 153°
2026-04-23 19:02 -21.13716 -47.68955 11475 ft 294 kts 153°
2026-04-23 19:02 -21.15633 -47.68001 11839 ft 312 kts 153°
2026-04-23 19:02 -21.17647 -47.66999 12329 ft 323 kts 153°
2026-04-23 19:03 -21.19677 -47.65992 13137 ft 321 kts 153°
2026-04-23 19:03 -21.21709 -47.64991 13825 ft 323 kts 153°
2026-04-23 19:03 -21.23759 -47.63976 14434 ft 326 kts 153°
2026-04-23 19:03 -21.25709 -47.62797 15008 ft 328 kts 139°
2026-04-23 19:04 -21.27212 -47.60976 15590 ft 328 kts 123°
2026-04-23 19:04 -21.28454 -47.58921 16158 ft 330 kts 121°
2026-04-23 19:04 -21.29671 -47.56818 16674 ft 334 kts 121°
2026-04-23 19:04 -21.30917 -47.54694 17172 ft 338 kts 121°
2026-04-23 19:05 -21.32189 -47.52561 17664 ft 342 kts 122°
2026-04-23 19:05 -21.33488 -47.50410 18154 ft 346 kts 122°
2026-04-23 19:05 -21.34817 -47.48227 18488 ft 355 kts 123°
2026-04-23 19:05 -21.36195 -47.45977 18728 ft 366 kts 123°
2026-04-23 19:06 -21.37607 -47.43677 19110 ft 372 kts 123°
2026-04-23 19:06 -21.39035 -47.41354 19559 ft 375 kts 123°
2026-04-23 19:06 -21.40476 -47.39009 19995 ft 378 kts 124°
2026-04-23 19:06 -21.41928 -47.36649 20507 ft 379 kts 124°
2026-04-23 19:07 -21.43374 -47.34298 21111 ft 377 kts 124°
2026-04-23 19:07 -21.44801 -47.31974 21654 ft 377 kts 124°
2026-04-23 19:07 -21.46243 -47.29626 22163 ft 377 kts 124°
2026-04-23 19:07 -21.47687 -47.27275 22682 ft 378 kts 124°
2026-04-23 19:08 -21.49128 -47.24928 23278 ft 376 kts 124°
2026-04-23 19:08 -21.50561 -47.22593 23867 ft 374 kts 125°
2026-04-23 19:08 -21.51989 -47.20264 24421 ft 373 kts 125°
2026-04-23 19:08 -21.53415 -47.17940 24957 ft 373 kts 126°
2026-04-23 19:09 -21.54837 -47.15619 25490 ft 372 kts 126°
2026-04-23 19:09 -21.56262 -47.13295 25957 ft 374 kts 126°
2026-04-23 19:09 -21.57697 -47.10955 26350 ft 377 kts 126°
2026-04-23 19:09 -21.59155 -47.08579 26604 ft 385 kts 126°
2026-04-23 19:10 -21.60641 -47.06155 26856 ft 392 kts 126°
2026-04-23 19:10 -21.62153 -47.03686 27068 ft 400 kts 126°
2026-04-23 19:10 -21.63700 -47.01159 27088 ft 407 kts 126°
2026-04-23 19:10 -21.65260 -46.98609 27091 ft 409 kts 126°
2026-04-23 19:11 -21.66822 -46.96052 27098 ft 409 kts 126°
2026-04-23 19:11 -21.68382 -46.93494 27106 ft 409 kts 126°
2026-04-23 19:11 -21.69919 -46.90972 27112 ft 409 kts 126°
2026-04-23 19:11 -21.71476 -46.88419 27121 ft 408 kts 126°
2026-04-23 19:12 -21.72529 -46.86692 27126 ft 408 kts 126°
2026-04-23 19:12 -21.74589 -46.83311 27137 ft 408 kts 126°
2026-04-23 19:12 -21.76146 -46.80756 27148 ft 408 kts 126°
2026-04-23 19:12 -21.77702 -46.78201 27155 ft 408 kts 126°
2026-04-23 19:13 -21.79258 -46.75644 27158 ft 408 kts 126°
2026-04-23 19:13 -21.80813 -46.73088 27165 ft 408 kts 126°
2026-04-23 19:13 -21.82369 -46.70529 27170 ft 408 kts 126°
2026-04-23 19:13 -21.83914 -46.67985 27170 ft 409 kts 126°
2026-04-23 19:14 -21.85473 -46.65428 27168 ft 408 kts 128°
2026-04-23 19:14 -21.87365 -46.63205 27149 ft 400 kts 148°
2026-04-23 19:14 -21.89854 -46.61974 27161 ft 390 kts 172°
2026-04-23 19:14 -21.92544 -46.61842 27180 ft 386 kts 188°
2026-04-23 19:15 -21.95225 -46.62115 27179 ft 387 kts 188°
2026-04-23 19:15 -21.97916 -46.62359 27175 ft 387 kts 188°
2026-04-23 19:15 -22.00609 -46.62570 27171 ft 387 kts 187°
2026-04-23 19:15 -22.03306 -46.62758 27169 ft 387 kts 187°
2026-04-23 19:16 -22.06005 -46.62929 27165 ft 388 kts 187°
2026-04-23 19:16 -22.08706 -46.63092 27162 ft 388 kts 187°
2026-04-23 19:16 -22.11414 -46.63249 27160 ft 388 kts 186°
2026-04-23 19:17 -22.16662 -46.63544 27156 ft 388 kts 187°
2026-04-23 19:17 -22.19367 -46.63694 27152 ft 389 kts 187°
2026-04-23 19:17 -22.22076 -46.63844 27150 ft 389 kts 187°
2026-04-23 19:17 -22.24788 -46.63994 27149 ft 389 kts 186°
2026-04-23 19:18 -22.27500 -46.64143 27146 ft 389 kts 187°
2026-04-23 19:18 -22.30219 -46.64292 27147 ft 389 kts 187°
2026-04-23 19:18 -22.32929 -46.64440 27145 ft 389 kts 187°
2026-04-23 19:18 -22.35641 -46.64589 27145 ft 389 kts 187°
2026-04-23 19:19 -22.40994 -46.64881 26625 ft 381 kts 187°
2026-04-23 19:19 -22.43650 -46.65029 25907 ft 385 kts 186°
2026-04-23 19:20 -22.49017 -46.65329 24410 ft 392 kts 186°
2026-04-23 19:20 -22.51749 -46.65480 23682 ft 395 kts 186°
2026-04-23 19:20 -22.54500 -46.65632 22989 ft 396 kts 185°
2026-04-23 19:20 -22.57246 -46.65782 22464 ft 393 kts 185°
2026-04-23 19:21 -22.59969 -46.65931 21945 ft 390 kts 185°
2026-04-23 19:21 -22.65365 -46.66229 20890 ft 385 kts 184°
2026-04-23 19:21 -22.68040 -46.66376 20373 ft 383 kts 184°
2026-04-23 19:22 -22.70700 -46.66523 19864 ft 381 kts 184°
2026-04-23 19:22 -22.73346 -46.66668 19363 ft 379 kts 183°
2026-04-23 19:22 -22.78591 -46.66959 18358 ft 375 kts 182°
2026-04-23 19:23 -22.81195 -46.67103 17866 ft 373 kts 182°
2026-04-23 19:23 -22.83780 -46.67246 17393 ft 370 kts 182°
2026-04-23 19:23 -22.86350 -46.67386 16930 ft 368 kts 182°
2026-04-23 19:24 -22.91399 -46.67661 16034 ft 362 kts 181°
2026-04-23 19:24 -22.93914 -46.67799 15581 ft 360 kts 181°
2026-04-23 19:24 -22.98900 -46.68073 14663 ft 356 kts 181°
2026-04-23 19:25 -23.03835 -46.68345 13742 ft 352 kts 181°
2026-04-23 19:25 -23.08705 -46.68615 12859 ft 347 kts 181°
2026-04-23 19:26 -23.13447 -46.68879 11694 ft 339 kts 181°
2026-04-23 19:26 -23.15792 -46.69009 11011 ft 336 kts 181°
2026-04-23 19:27 -23.20395 -46.69262 9411 ft 327 kts 181°
2026-04-23 19:27 -23.27148 -46.69633 7363 ft 317 kts 181°
2026-04-23 19:28 -23.31389 -46.69871 6994 ft 292 kts 181°
2026-04-23 19:28 -23.35297 -46.70089 6731 ft 269 kts 181°
2026-04-23 19:29 -23.37121 -46.70190 6608 ft 259 kts 181°
2026-04-23 19:29 -23.40607 -46.70385 6352 ft 240 kts 181°
2026-04-23 19:30 -23.43620 -46.69743 6057 ft 213 kts 129°
2026-04-23 19:30 -23.44416 -46.68436 5931 ft 204 kts 116°
2026-04-23 19:30 -23.45797 -46.65758 5472 ft 201 kts 120°
2026-04-23 19:31 -23.46533 -46.64480 5239 ft 201 kts 121°
2026-04-23 19:31 -23.47133 -46.63138 5044 ft 193 kts 99°
2026-04-23 19:31 -23.47058 -46.61721 4852 ft 184 kts 79°
2026-04-23 19:31 -23.46731 -46.60399 4625 ft 179 kts 75°
2026-04-23 19:32 -23.46365 -46.59129 4397 ft 172 kts 74°
2026-04-23 19:32 -23.46027 -46.57945 4195 ft 158 kts 75°
2026-04-23 19:32 -23.45723 -46.56842 3977 ft 146 kts 76°
2026-04-23 19:32 -23.45440 -46.55795 3799 ft 144 kts 76°
2026-04-23 19:33 -23.45162 -46.54763 3631 ft 143 kts 77°
2026-04-23 19:33 -23.44879 -46.53713 3453 ft 143 kts 76°
2026-04-23 19:33 -23.44312 -46.51654 3108 ft 142 kts 76°
2026-04-23 19:34 -23.44035 -46.50610 2928 ft 143 kts 77°
2026-04-23 19:34 -23.43756 -46.49575 2737 ft 142 kts 76°
2026-04-23 19:34 -23.43213 -46.47535 2469 ft 124 kts 73°
2026-04-23 19:35 -23.43019 -46.46813 2469 ft 74 kts 73°
2026-04-23 19:35 -23.42920 -46.46451 2469 ft 34 kts 74°
2026-04-23 19:35 -23.42863 -46.46238 2470 ft 16 kts 74°
2026-04-23 19:35 -23.42795 -46.46191 2470 ft 13 kts 348°
2026-04-23 19:36 -23.42700 -46.46220 2470 ft 14 kts 344°
2026-04-23 19:36 -23.42621 -46.46276 2470 ft 14 kts 275°
2026-04-23 19:36 -23.42646 -46.46388 2470 ft 15 kts 254°
2026-04-23 19:36 -23.42677 -46.46502 2470 ft 16 kts 253°
2026-04-23 19:37 -23.42709 -46.46621 2470 ft 16 kts 253°
2026-04-23 19:37 -23.42743 -46.46744 2470 ft 17 kts 254°
2026-04-23 19:37 -23.42775 -46.46865 2470 ft 16 kts 253°
2026-04-23 19:37 -23.42807 -46.46982 2469 ft 15 kts 253°
2026-04-23 19:38 -23.42837 -46.47094 2469 ft 15 kts 254°
2026-04-23 19:38 -23.42866 -46.47200 2469 ft 14 kts 253°
2026-04-23 19:38 -23.42894 -46.47304 2469 ft 13 kts 253°
2026-04-23 19:38 -23.42921 -46.47403 2469 ft 13 kts 253°
2026-04-23 19:39 -23.42948 -46.47504 2469 ft 14 kts 254°
2026-04-23 19:39 -23.42978 -46.47615 2469 ft 15 kts 254°
2026-04-23 19:39 -23.43007 -46.47723 2469 ft 14 kts 253°
2026-04-23 19:39 -23.43035 -46.47827 2469 ft 14 kts 254°
2026-04-23 19:40 -23.43063 -46.47928 2468 ft 13 kts 253°
2026-04-23 19:40 -23.43089 -46.48025 2468 ft 13 kts 253°
2026-04-23 19:40 -23.43096 -46.48118 2468 ft 12 kts 310°
2026-04-23 19:40 -23.43016 -46.48124 2468 ft 11 kts 31°
2026-04-23 19:41 -23.42955 -46.48072 2468 ft 8 kts 38°
2026-04-23 19:41 -23.42934 -46.48055 2469 ft 2 kts 37°
2026-04-23 19:41 -23.42933 -46.48054 2469 ft 0 kts 37°
2026-04-23 19:43 -23.42930 -46.48051 2468 ft 1 kts 38°
2026-04-23 19:43 -23.42929 -46.48051 2468 ft 0 kts 38°